CW9443 Weather Reports


Display with metric or nautical units.
time (UTC)temp
F
wind
direction
speed
MPH
gust
MPH
rain 1hr
in
rain 24hr
in
rain mn
in
humidity
%
barometer
mb
20260507194559 74 211 3.0 0.0 0.00 0.00 0.00 58 1014.2
20260507193110 75 249 1.0 0.0 0.00 0.00 0.00 56 1014.2
20260507191600 75 237 2.0 0.0 0.00 0.00 0.00 57 1014.2
20260507184523 75 221 1.0 0.0 0.00 0.00 0.00 57 1014.5
20260507183020 73 221 1.0 0.0 0.00 0.00 0.00 59 1014.4
20260507181512 73 218 1.0 0.0 0.00 0.00 0.00 59 1014.5
20260507174508 71 221 0.0 0.0 0.00 0.00 0.00 62 1014.7
20260507173002 71 221 0.0 0.0 0.00 0.00 0.00 62 1014.7
20260507171604 69 221 0.0 0.0 0.00 0.00 0.00 63 1014.7
20260507164559 68 221 0.0 0.0 0.00 0.00 0.00 67 1014.9
20260507163055 66 221 0.0 0.0 0.00 0.00 0.00 67 1015.0
20260507161556 65 221 0.0 0.0 0.00 0.00 0.00 68 1014.9
20260507154541 64 221 0.0 0.0 0.00 0.00 0.00 69 1015.0
20260507153045 64 221 0.0 0.0 0.00 0.00 0.00 71 1015.1
20260507151534 63 221 0.0 0.0 0.00 0.00 0.00 72 1015.1
20260507150033 63 221 0.0 0.0 0.00 0.00 0.00 72 1015.1
20260507144549 60 221 0.0 0.0 0.00 0.00 0.00 76 1015.1
20260507143043 59 221 0.0 0.0 0.00 0.00 0.00 77 1015.1
20260507141538 58 221 0.0 0.0 0.00 0.00 0.00 80 1014.9
20260507134530 55 221 0.0 0.0 0.00 0.00 0.00 86 1014.6
20260507133030 54 221 0.0 0.0 0.00 0.00 0.00 86 1014.5
20260507131528 54 221 0.0 0.0 0.00 0.00 0.00 86 1014.4
20260507124552 54 221 0.0 0.0 0.00 0.00 0.00 86 1014.2
20260507123053 54 221 0.0 0.0 0.00 0.00 0.00 87 1014.2
20260507121546 54 221 0.0 0.0 0.00 0.00 0.00 87 1014.2
20260507114523 54 221 0.0 0.0 0.00 0.00 0.00 86 1014.3
20260507113033 54 221 0.0 0.0 0.00 0.00 0.00 85 1014.3
20260507110041 55 221 0.0 0.0 0.00 0.00 0.00 83 1014.4
20260507104541 55 221 0.0 0.0 0.00 0.00 0.00 84 1014.4
20260507103038 55 221 0.0 0.0 0.00 0.00 0.00 83 1014.6
20260507100056 55 221 0.0 0.0 0.00 0.00 0.00 84 1014.7
20260507094554 55 221 0.0 0.0 0.00 0.00 0.00 83 1014.8
20260507093052 55 221 0.0 0.0 0.00 0.00 0.00 84 1014.9
20260507090031 55 221 0.0 0.0 0.00 0.00 0.00 85 1015.1
20260507084525 55 221 0.0 0.0 0.00 0.00 0.00 85 1015.2
20260507083035 55 221 0.0 0.0 0.00 0.00 0.00 85 1015.3
20260507080025 55 221 0.0 0.0 0.00 0.00 0.00 87 1015.4
20260507074528 55 221 0.0 0.0 0.00 0.00 0.00 89 1015.5
20260507073039 55 221 0.0 0.0 0.00 0.00 0.00 89 1015.5
20260507071553 55 221 0.0 0.0 0.00 0.00 0.00 92 1015.7
20260507070037 55 221 0.0 0.0 0.00 0.00 0.00 90 1015.8
20260507063041 55 221 0.0 0.0 0.00 0.00 0.00 90 1015.8
20260507061539 56 221 0.0 0.0 0.00 0.00 0.00 89 1015.9
20260507060040 56 221 0.0 0.0 0.00 0.00 0.00 88 1016.0
20260507053042 57 221 0.0 0.0 0.00 0.00 0.00 85 1015.8
20260507051536 57 221 0.0 0.0 0.00 0.00 0.00 84 1015.9
20260507044550 57 221 0.0 0.0 0.00 0.00 0.00 83 1015.7
20260507043048 58 221 0.0 0.0 0.00 0.00 0.00 83 1015.7
20260507040024 58 221 0.0 0.0 0.00 0.00 0.00 82 1015.6
20260507034524 58 221 0.0 0.0 0.00 0.00 0.00 81 1015.4
20260507033024 59 221 0.0 0.0 0.00 0.00 0.00 80 1015.5
20260507030024 60 221 0.0 0.0 0.00 0.00 0.00 76 1015.0
20260507024525 61 221 0.0 0.0 0.00 0.00 0.00 74 1014.9
20260507023022 62 221 0.0 0.0 0.00 0.00 0.00 71 1014.8
20260507020021 64 221 0.0 0.0 0.00 0.00 0.00 68 1014.7
20260507014518 64 221 0.0 0.0 0.00 0.00 0.00 67 1014.6
20260507013021 65 221 0.0 0.0 0.00 0.00 0.00 64 1014.6
20260507010014 67 215 0.0 0.0 0.00 0.00 0.00 59 1014.6
20260507004517 67 218 0.0 0.0 0.00 0.00 0.00 59 1014.6
20260507003026 68 213 0.0 0.0 0.00 0.00 0.00 57 1014.7
20260507001530 69 216 0.0 0.0 0.00 0.00 0.00 57 1014.7
20260507000025 69 209 0.0 0.0 0.00 0.00 0.00 56 1014.7
20260506234530 71 211 0.0 0.0 0.00 0.00 0.00 57 1014.6
20260506233045 71 242 0.0 0.0 0.00 0.00 0.00 57 1014.6
20260506231545 71 257 0.0 0.0 0.00 0.00 0.00 58 1014.7
20260506230047 70 234 0.0 0.0 0.00 0.00 0.00 57 1014.9
20260506223045 72 215 0.0 0.0 0.00 0.00 0.00 55 1015.0
20260506221544 71 202 2.0 0.0 0.00 0.00 0.00 55 1015.2
20260506220056 72 234 1.0 0.0 0.00 0.00 0.00 53 1015.5
20260506213034 72 206 2.0 0.0 0.00 0.00 0.00 54 1015.9
20260506211536 71 220 2.0 0.0 0.00 0.00 0.00 55 1016.0
20260506204539 72 226 2.0 0.0 0.00 0.00 0.00 56 1016.0
20260506203111 71 204 3.0 0.0 0.00 0.00 0.00 57 1016.1
20260506201523 72 218 2.0 0.0 0.00 0.00 0.00 58 1016.3
20260506200025 71 206 3.0 0.0 0.00 0.00 0.00 58 1016.5